This is the latest recevied weather packets stored in our database for station/object HB9HFD-13. If no packets are shown the sender has not sent any weather packets the latest 10 day(s).
| Time | Temp. | Humidity | Pressure | Rain* | Wind** | Luminosity | Snow |
|---|---|---|---|---|---|---|---|
| 1777737370 | 23.89° C | 34% | 1015.9 hPa | 0 mm | - | - | - |
| 1777737069 | 23.89° C | 33% | 1015.9 hPa | 0 mm | - | - | - |
| 1777736769 | 24.44° C | 31% | 1015.9 hPa | 0 mm | - | - | - |
| 1777736469 | 25° C | 30% | 1015.9 hPa | 0 mm | - | - | - |
| 1777736168 | 25.56° C | 31% | 1016 hPa | 0 mm | - | - | - |
| 1777735868 | 25.56° C | 32% | 1016 hPa | 0 mm | - | - | - |
| 1777735568 | 25.56° C | 30% | 1016.1 hPa | 0 mm | - | - | - |
| 1777735268 | 25.56° C | 29% | 1016.1 hPa | 0 mm | - | - | - |
| 1777734967 | 26.11° C | 29% | 1016.2 hPa | 0 mm | - | - | - |
| 1777734667 | 26.11° C | 29% | 1016.2 hPa | 0 mm | - | - | - |
| 1777734367 | 26.11° C | 29% | 1016.2 hPa | 0 mm | - | - | - |
| 1777734067 | 26.11° C | 37% | 1016.2 hPa | 0 mm | - | - | - |
| 1777733766 | 26.11° C | 38% | 1016.3 hPa | 0 mm | - | - | - |
| 1777733466 | 26.11° C | 35% | 1016.4 hPa | 0 mm | - | - | - |
| 1777733166 | 26.67° C | 36% | 1016.3 hPa | 0 mm | - | - | - |
| 1777732866 | 26.11° C | 38% | 1016.5 hPa | 0 mm | - | - | - |
| 1777732565 | 25.56° C | 38% | 1016.5 hPa | 0 mm | - | - | - |
| 1777732265 | 25.56° C | 39% | 1016.8 hPa | 0 mm | - | - | - |
| 1777731965 | 26.11° C | 37% | 1016.6 hPa | 0 mm | - | - | - |
| 1777731665 | 26.11° C | 40% | 1016.7 hPa | 0 mm | - | - | - |
| 1777731364 | 26.11° C | 39% | 1016.9 hPa | 0 mm | - | - | - |
| 1777731064 | 26.11° C | 39% | 1016.9 hPa | 0 mm | - | - | - |
| 1777730764 | 25.56° C | 42% | 1017 hPa | 0 mm | - | - | - |
| 1777730464 | 25.56° C | 41% | 1017.1 hPa | 0 mm | - | - | - |
| 1777730163 | 25.56° C | 40% | 1017.2 hPa | 0 mm | - | - | - |
* Rain latest hour (hover to see other rain measurements)
** Current wind speed in m/s (hover to see current wind gust speed)